Weather History for Oshkosh, WI

Change the Weather History Date:

Tuesday, May 20, 2014

  Actual Average Record
Temperature  
Mean Temperature 63 °F -  
Max Temperature 73 °F 70 °F 90 °F (1972)
Min Temperature 53 °F 48 °F 30 °F (1954)
Degree Days  
Heating Degree Days 2    
Growing Degree Days 13 (Base 50)    
Moisture  
Dew Point 56 °F    
Average Humidity 75    
Maximum Humidity 90    
Minimum Humidity 66    
Precipitation  
Precipitation 0.00 in - - ()
Sea Level Pressure  
Sea Level Pressure 29.83 in    
Wind  
Wind Speed 8 mph (East)    
Max Wind Speed 17 mph    
Max Gust Speed -    
Visibility 9 miles    
Events      
Averages and records for this station are not official NWS values.
T = Trace of Precipitation, MM = Missing Value Source: NWS Daily Summary

Daily Weather History Graph

Daily Weather History Graph

Search for Another Location

Airport:

Trip Planner

Search our weather history database for the weather conditions in past years. The results will help you decide how hot, cold, wet, or windy it might be!

Date:

Astronomy

May. 20, 2014 Rise Set
Actual Time 5:23 AM CDT 8:18 PM CDT
Civil Twilight 4:49 AM CDT 8:53 PM CDT
Nautical Twilight 4:05 AM CDT 9:36 PM CDT
Astronomical Twilight 3:15 AM CDT 10:27 PM CDT
Moon 12:44 AM CDT (5/20) 11:35 AM CDT (5/20)
Length of Visible Light 16h 03m
Length of Day
14h 55m
Waning Gibbous, 60% of the Moon is Illuminated
May 20
Waning Gibbous
May 21
Last Quarter
May 28
New
Jun 5
First Quarter
Jun 12
Full

Hourly Weather History & Observations

Time (CDT) Temp. Dew Point Humidity Pressure Visibility Wind Dir Wind Speed Gust Speed Precip Events Conditions
1:53 AM 53.1 °F 46.0 °F 77% 29.88 in 10.0 mi SE 12.7 mph - 0.00 in   Overcast
2:53 AM 53.1 °F 46.0 °F 77% 29.83 in 10.0 mi SSE 17.3 mph - N/A   Overcast
4:53 AM 53.1 °F 46.0 °F 77% 29.82 in 10.0 mi ESE 3.5 mph - N/A   Overcast
5:53 AM 53.1 °F 46.9 °F 80% 29.82 in 10.0 mi SE 3.5 mph - N/A   Mostly Cloudy
7:53 AM 59.0 °F 51.1 °F 75% 29.82 in 10.0 mi Calm Calm - N/A   Clear
8:53 AM 61.0 °F 53.1 °F 75% 29.82 in 9.0 mi East 3.5 mph - N/A   Partly Cloudy
9:53 AM 64.0 °F 55.0 °F 73% 29.81 in 10.0 mi East 3.5 mph - N/A   Clear
10:53 AM 70.0 °F 60.1 °F 71% 29.81 in 10.0 mi West 5.8 mph - N/A   Clear
11:53 AM 70.0 °F 60.1 °F 71% 29.82 in 10.0 mi ENE 4.6 mph - N/A   Clear
12:53 PM 71.1 °F 60.1 °F 68% 29.83 in 9.0 mi ENE 6.9 mph - N/A   Clear
1:53 PM 71.1 °F 60.1 °F 68% 29.83 in 9.0 mi ENE 8.1 mph - N/A   Clear
2:53 PM 70.0 °F 59.0 °F 68% 29.84 in 8.0 mi ENE 8.1 mph - N/A   Clear
3:53 PM 72.0 °F 60.1 °F 66% 29.83 in 9.0 mi ENE 9.2 mph - N/A   Scattered Clouds
4:53 PM 72.0 °F 60.1 °F 66% 29.84 in 9.0 mi NE 8.1 mph - N/A   Clear
5:53 PM 73.0 °F 61.0 °F 66% 29.83 in 10.0 mi ENE 6.9 mph - N/A   Clear
6:53 PM 71.1 °F 62.1 °F 73% 29.82 in 7.0 mi ESE 6.9 mph - N/A   Clear
7:53 PM 69.1 °F 61.0 °F 75% 29.82 in 7.0 mi SE 6.9 mph - N/A   Clear
8:53 PM 66.0 °F 60.1 °F 81% 29.81 in 7.0 mi East 6.9 mph - N/A   Clear
9:53 PM 63.0 °F 57.9 °F 84% 29.84 in 7.0 mi East 5.8 mph - N/A   Clear
10:53 PM 62.1 °F 57.9 °F 86% 29.84 in 6.0 mi ESE 3.5 mph - N/A   Partly Cloudy
11:53 PM 60.1 °F 57.0 °F 90% 29.83 in 5.0 mi Calm Calm - N/A   Clear